CDT,Max TemperatureF,Mean TemperatureF,Min TemperatureF,Max Dew PointF,MeanDew PointF,Min DewpointF,Max Humidity, Mean Humidity, Min Humidity, Max Sea Level PressureIn, Mean Sea Level PressureIn, Min Sea Level PressureIn, Max VisibilityMiles, Mean VisibilityMiles, Min VisibilityMiles, Max Wind SpeedMPH, Mean Wind SpeedMPH, Max Gust SpeedMPH,PrecipitationIn, CloudCover, Events, WindDirDegrees
2013-8-1,83,74,66,73,69,64,100,92,56,30.06,30.01,29.96,10,7,1,10,3,,0.00,3,,328
2013-8-2,84,72,61,69,65,61,100,73,49,30.05,30.02,29.99,10,10,9,8,2,,0.00,2,,188
2013-8-3,81,76,71,76,73,68,100,93,79,30.07,30.02,29.97,10,9,2,10,5,,0.11,5,Rain-Thunderstorm,225
2013-8-4,81,74,65,74,66,60,100,80,50,30.13,30.09,30.05,10,10,9,10,6,,0.00,2,,3
2013-8-5,80,71,63,70,65,58,100,84,50,30.09,30.02,29.95,10,10,6,10,4,,0.08,4,Rain,106
2013-8-6,82,75,69,79,75,69,100,95,80,29.98,29.94,29.91,10,10,1,10,4,,0.11,6,Rain,191
2013-8-7,83,78,73,79,76,73,100,92,74,29.98,29.94,29.90,10,10,9,10,5,,0.02,5,Rain,182
2013-8-8,82,76,71,79,75,72,100,96,83,29.99,29.95,29.90,10,7,0,29,5,34,0.64,5,Fog-Rain-Thunderstorm,138
2013-8-9,89,80,73,77,75,73,100,88,65,30.04,29.99,29.94,10,10,10,9,4,,0.00,3,Thunderstorm,203
2013-8-10,82,76,71,77,73,71,100,97,70,30.14,30.09,30.03,10,8,1,13,5,,0.64,6,Rain-Thunderstorm,269
2013-8-11,85,78,72,79,75,73,100,92,69,30.14,30.10,30.05,10,10,4,9,3,,0.06,4,Rain,249
2013-8-12,86,78,71,79,75,72,100,97,68,30.09,30.02,29.92,10,8,1,18,5,20,0.59,6,Rain-Thunderstorm,196
2013-8-13,82,74,66,75,71,64,100,93,60,30.04,29.96,29.92,10,10,9,13,7,18,0.00,6,,293
2013-8-14,75,65,56,64,55,52,100,68,46,30.13,30.11,30.04,10,8,0,16,11,18,0.00,0,,26
2013-8-15,77,65,53,61,57,53,100,76,52,30.11,30.08,30.03,10,10,10,10,6,17,0.00,0,,37
2013-8-16,77,68,61,69,64,59,99,83,64,30.10,30.08,30.04,10,10,10,7,4,,0.00,6,,52
2013-8-17,77,72,66,72,68,64,100,93,65,30.15,30.10,30.06,10,9,1,10,4,,0.55,6,Rain-Thunderstorm,79
2013-8-18,79,72,64,70,67,64,100,92,60,30.17,30.12,30.06,10,9,2,7,3,,0.01,5,,110
2013-8-19,83,72,62,73,66,63,100,96,58,30.14,30.11,30.04,10,3,0,8,3,,0.00,2,Fog-Rain,71
2013-8-20,86,76,67,75,72,68,100,87,61,30.14,30.09,30.04,10,9,2,14,3,22,0.15,4,Rain-Thunderstorm,54
2013-8-21,88,80,71,76,73,69,100,81,54,30.15,30.11,30.07,10,9,2,8,4,,0.00,1,,215
2013-8-22,88,78,68,77,72,68,100,85,53,30.14,30.10,30.03,10,10,9,9,3,,0.00,0,Rain,231
2013-8-23,88,78,69,76,72,70,100,86,58,30.09,30.06,30.01,10,9,2,10,2,,0.00,0,Thunderstorm,359
2013-8-24,87,76,66,73,68,66,100,91,50,30.20,30.14,30.09,10,5,1,12,3,,0.00,0,,45
2013-8-25,87,77,68,71,68,65,100,75,53,30.30,30.25,30.20,10,10,10,10,5,,0.00,1,,144
2013-8-26,86,78,69,73,70,68,100,81,59,30.28,30.21,30.14,10,10,10,8,4,,0.00,1,,205
2013-8-27,86,77,68,76,72,68,100,81,63,30.15,30.10,30.04,10,10,10,10,5,,0.00,1,,238
2013-8-28,89,80,70,75,72,69,100,79,51,30.07,30.04,30.01,10,10,9,13,6,,0.00,0,,251
2013-8-29,92,81,71,76,73,71,100,77,51,30.04,30.00,29.96,10,10,7,9,6,,0.00,0,,277
2013-8-30,92,83,74,77,74,71,100,77,51,30.00,29.95,29.90,10,10,10,12,5,16,0.00,0,Rain,245
2013-8-31,93,83,74,75,74,72,100,78,54,29.92,29.87,29.81,10,10,10,13,5,,0.00,0,,214